Flag for U.S.A. Weather past 2 weeks in Leesburg, Virginia, U.S.A.

57 °F


Feels Like: 55 °F
Forecast: 53 / 62 °F
Wind: 9 mph from Northeast

Location: Leesburg / Godfrey

Current Time: Oct 4, 2015 at 1:30:53 PM

Latest Report: Oct 4, 2015 at 12:55 PM

Visibility: 10 mi

Pressure: 30.23 "Hg

Humidity: 94%

Dew point: 55 °F

Location of LeesburgLocation

Historic Weather in Leesburg — Graph


Leesburg temperature yesterday

Maximum temperature yesterday: 55 °F (at 5:15 PM)
Minimum temperature yesterday: 46 °F (at 5:55 AM)
Average temperature yesterday: 52 °F

Past Weeks' High & Low Weather Summary

High90 °F (Sep 19, 4:35 PM)100% (Sep 20, 1:55 AM)30.42 "Hg (Sep 20, 1:55 AM)
Low46 °F (Oct 3, 5:55 AM)37% (Sep 24, 3:35 PM)29.70 "Hg (Sep 30, 4:15 AM)
Average65 °F84%30.16 "Hg
* Reported Sep 19 12:15 PM — Oct 4 12:15 PM, Leesburg, Weather by CustomWeather, © 2015

Note: Actual official high and low records may vary slightly from our data, if they occured in-between our weather recording intervals... More about our weather records


Leesburg weather history for previous 24 hours

Time TempWeatherWind HumidityBarometerVisibility
12:15 PM
Sun, Oct 4
55 °FOvercast.7 mph100%30.24 "Hg10 mi
11:55 AM54 °FOvercast.8 mph100%30.24 "Hg10 mi
11:35 AM54 °FOvercast.7 mph100%30.25 "Hg10 mi
11:15 AM54 °FOvercast.7 mph100%30.25 "Hg10 mi
10:55 AM54 °FMore clouds than sun.7 mph100%30.25 "Hg7 mi
10:15 AM54 °FFog.8 mph100%30.25 "Hg4 mi
9:55 AM54 °FFog.6 mph100%30.25 "Hg5 mi
9:35 AM52 °FFog.7 mph100%30.25 "Hg5 mi
9:15 AM52 °FFog.8 mph100%30.24 "Hg5 mi
8:55 AM52 °FFog.8 mph100%30.24 "Hg5 mi
8:35 AM52 °FFog.9 mph100%30.24 "Hg4 mi
8:15 AM52 °FFog.7 mph100%30.23 "Hg4 mi
7:55 AM52 °FFog.7 mph100%30.23 "Hg3 mi
7:15 AM52 °FFog.7 mph100%30.23 "Hg3 mi
6:55 AM52 °FFog.9 mph100%30.22 "Hg3 mi
6:35 AM52 °FFog.9 mph100%30.22 "Hg3 mi
6:15 AM52 °FFog.9 mph100%30.22 "Hg3 mi
5:55 AM52 °FFog.10 mph100%30.22 "Hg3 mi
5:15 AM52 °FFog.10 mph100%30.21 "Hg3 mi
4:55 AM52 °FFog.9 mph100%30.21 "Hg2 mi
4:35 AM52 °FFog.8 mph100%30.21 "Hg2 mi
4:15 AM52 °FFog.9 mph100%30.21 "Hg3 mi
3:55 AM52 °FFog.9 mph100%30.21 "Hg3 mi
3:35 AM52 °FFog.9 mph100%30.22 "Hg3 mi
3:15 AM52 °FDrizzle. Low clouds.8 mph100%30.22 "Hg5 mi
2:55 AM52 °FLight rain. Low clouds.7 mph100%30.22 "Hg4 mi
2:15 AM52 °FLight rain. Low clouds.8 mph100%30.22 "Hg3 mi
1:55 AM52 °FDrizzle. Low clouds.8 mph100%30.22 "Hg4 mi
1:35 AM52 °FDrizzle. Low clouds.9 mph100%30.21 "Hg4 mi
1:15 AM52 °FRain. Low clouds.8 mph100%30.22 "Hg3 mi
12:55 AM52 °FLight rain. Low clouds.7 mph100%30.22 "Hg4 mi
11:35 PM
Sat, Oct 3
54 °FFog.10 mph100%30.22 "Hg4 mi
11:15 PM54 °FFog.9 mph100%30.22 "Hg3 mi
10:55 PM54 °FFog.8 mph100%30.22 "Hg3 mi
10:35 PM54 °FFog.9 mph100%30.22 "Hg3 mi
10:15 PM54 °FFog.9 mph100%30.23 "Hg4 mi
9:55 PM54 °FDrizzle. Low clouds.8 mph100%30.22 "Hg5 mi
9:35 PM54 °FFog.10 mph100%30.22 "Hg5 mi
9:15 PM54 °FOvercast.8 mph100%30.21 "Hg7 mi
8:55 PM54 °FLight rain. Overcast.13 mph100%30.21 "Hg7 mi
8:35 PM54 °FOvercast.9 mph100%30.20 "Hg10 mi
8:15 PM54 °FLow clouds.8 mph100%30.19 "Hg10 mi
7:55 PM54 °FLow clouds.9 mph100%30.19 "Hg10 mi
7:35 PM54 °FLow clouds.15 mph100%30.19 "Hg7 mi
7:15 PM55 °FLow clouds.12 mph100%30.18 "Hg7 mi
6:55 PM54 °FLow clouds.8 mph100%30.18 "Hg10 mi
5:15 PM55 °FLight rain. Low clouds.8 mph100%30.16 "Hg7 mi
4:55 PM54 °FLow clouds.7 mph100%30.16 "Hg7 mi
4:35 PM54 °FLow clouds.9 mph100%30.15 "Hg7 mi
4:15 PM54 °FFog.8 mph100%30.15 "Hg5 mi
3:55 PM54 °FFog.8 mph100%30.14 "Hg4 mi
3:35 PM54 °FFog.9 mph100%30.14 "Hg3 mi
3:15 PM54 °FFog.9 mph100%30.14 "Hg4 mi
2:55 PM54 °FFog.8 mph100%30.14 "Hg3 mi
2:35 PM54 °FFog.8 mph100%30.14 "Hg3 mi
2:15 PM54 °FFog.10 mph100%30.14 "Hg2 mi
1:55 PM54 °FFog.8 mph100%30.14 "Hg2 mi
1:35 PM54 °FFog.9 mph100%30.14 "Hg2 mi
1:15 PM54 °FFog.9 mph100%30.15 "Hg3 mi
Weather by CustomWeather, © 2015

See weather overviewHow to use our weather pages